Location: Brachbach
(49.1847°N, 9.7240°E)
Time: 14:34:11
(UTC+00:00)

CZ-2C R/B - Pass Details

Date: 07 August 2024
Orbit: 782 x 869 km, 98.3° (Epoch: 15 September)

Event Time Altitude Azimuth Distance (km) Brightness Sun altitude
Exits shadow 00:05:41 15° 118° (ESE) 2,144 4.6 -23.9°
Maximum altitude 00:09:29 33° 63° (ENE) 1,413 4.1 -23.8°
Drops below altitude 10° 00:14:19 10° 2° (N) 2,471 6.2 -23.6°
Sets 00:16:51 0° 353° (N) 3,396 7.0 -23.6°
